Regional Weather Roundup
Issued by NWS

Home | Current Version | Previous Version | Graphics & Text | Print | Product List | Glossary On
Versions: 1 2 3 4 5 6 7 8 9 10 11 12 13 14 15 16 17 18 19 20 21 22 23 24 25 26 27 28 29 30 31 32 33 34 35 36 37 38 39 40 41 42 43 44 45 46 47 48 49 50
991
ASUS43 KLSX 231907
RWRMO

WEATHER SUMMARY FOR MISSOURI
NATIONAL WEATHER SERVICE SPRINGFIELD MO
100 PM CST THU NOV 23 2017

NOTE: "FAIR" INDICATES FEW OR NO CLOUDS BELOW 12,000 FEET WITH NO
       SIGNIFICANT WEATHER AND/OR OBSTRUCTIONS TO VISIBILITY.
       CURRENT SKY AND/OR WEATHER CONDITIONS ARE NOT AVAILABLE FOR
       CHILLICOTHE AND FARMINGTON.

MOZ001>031-035>038-043-044-053-054-232000-
...NORTHERN AND WESTERN MISSOURI...

CITY           SKY/WX    TMP DP  RH WIND       PRES   REMARKS
KANSAS CTY INT SUNNY     59  34  39 SW6       29.99F
KANSAS C DTWN  SUNNY     59  32  36 CALM      29.99F
LEE`S SUMMIT   SUNNY     58  33  39 VRB3      30.00F
ST JOSEPH      SUNNY     58  34  40 CALM      29.99F
CHILLICOTHE      N/A     57  33  40 SW6       29.98F
KIRKSVILLE     SUNNY     54  32  43 VRB7      29.96F

$$
MOZ066>068-077>081-088>096-101>105-232000-
...SOUTHWEST MISSOURI...

CITY           SKY/WX    TMP DP  RH WIND       PRES   REMARKS
SPRINGFIELD    SUNNY     60  28  29 W10       30.02F
JOPLIN         SUNNY     59  28  30 W12       30.04F

$$
MOZ032>034-039>042-045>050-055>058-069>072-232000-
...CENTRAL MISSOURI...

CITY           SKY/WX    TMP DP  RH WIND       PRES   REMARKS
COLUMBIA       SUNNY     56  29  35 W9        29.98F
JEFFERSON CITY SUNNY     55  27  34 W9        29.99F
ROLLA          SUNNY     56  27  32 SW12      29.99F
SEDALIA        SUNNY     56  31  38 W10       30.01F
WHITEMAN AFB   SUNNY     56  31  37 W5        29.96F
WARRENSBURG    SUNNY     55  30  38 SW3       30.00F
OSAGE BEACH    SUNNY     58  27  30 SW9       30.00F

$$
MOZ051-052-059>065-232000-
...EAST CENTRAL MISSOURI...

CITY           SKY/WX    TMP DP  RH WIND       PRES   REMARKS
ST LOUIS INTL  MOSUNNY   56  24  29 SW9       29.98F
SPIRIT OF STL  SUNNY     56  24  29 W13       29.97F
ST CHARLES     SUNNY     54  22  28 SW9       29.97F

$$
MOZ072>076-082>087-097>100-106>115-232000-
...SOUTH CENTRAL AND SOUTHEAST MISSOURI...

CITY           SKY/WX    TMP DP  RH WIND       PRES   REMARKS
CAPE GIRARDEAU SUNNY     49  27  42 S8        30.06F
FARMINGTON     SUNNY     55  25  31 S12       30.00F
POPLAR BLUFF   SUNNY     49  28  44 SW9       30.07F
WEST PLAINS    SUNNY     57  23  26 W10       30.03F

$$



USA.gov is the U.S. government's official web portal to all federal, state and local government web resources and services.